Home > Weather > Korschenbroich > Past weeks

Flag for Germany Weather for the Past 2 Weeks in Korschenbroich, North Rhine-Westphalia, Germany

Now
43 °F

Rain. Passing clouds.


Feels Like: 35 °F
Forecast: 38 / 43 °F
Wind: 15 mph from Southeast

Location: Monchengladbach Airport

Current Time: Feb 9, 2016 at 1:54:43 PM

Latest Report: Feb 9, 2016 at 12:50 PM


Visibility: 2 mi

Pressure: 29.06 "Hg

Humidity: 100%

Dew point: 43 °F

Location of KorschenbroichLocation

Historic Weather in Korschenbroich — Graph

°F

Korschenbroich Temperature Yesterday

Maximum temperature yesterday: 50 °F (at 10:50 AM)
Minimum temperature yesterday: 45 °F (at 1:20 PM)
Average temperature yesterday: 48 °F

High & Low Weather Summary for the Past Weeks

 TemperatureHumidityPressure
High57 °F (Jan 25, 1:50 PM)100% (Jan 26, 7:50 AM)30.33 "Hg (Jan 26, 7:50 AM)
Low37 °F (Jan 28, 6:50 PM)54% (Jan 28, 1:50 PM)29.09 "Hg (Feb 9, 12:20 PM)
Average47 °F88%29.94 "Hg
* Reported Jan 25 12:20 PM — Feb 9 12:20 PM, Korschenbroich, Weather by CustomWeather, © 2016

Note: Actual official high and low records may vary slightly from our data, if they occured in-between our weather recording intervals... More about our weather records

Advertising

Korschenbroich Weather History for the Previous 24 Hours

 ConditionsComfort  
Time TempWeatherWind HumidityBarometerVisibility
12:20 PM
Tue, Feb 9
43 °FRain. Passing clouds.14 mph100%29.09 "Hg2 mi
11:20 AM43 °FRain. Passing clouds.9 mph100%29.21 "Hg3 mi
10:50 AM43 °FRain. Passing clouds.7 mph93%29.24 "Hg3 mi
10:20 AM45 °FLight rain. Passing clouds.7 mph81%29.30 "Hg5 mi
9:50 AM45 °FClear.7 mph81%29.33 "Hg10 mi
8:50 AM45 °FPassing clouds.10 mph81%29.36 "HgN/A
8:20 AM45 °FScattered clouds.12 mph76%29.36 "HgN/A
7:50 AM45 °FLight rain. Partly sunny.12 mph81%29.39 "HgN/A
8:20 PM
Mon, Feb 8
48 °FPassing clouds.20 mph66%29.33 "HgN/A
7:50 PM46 °FPassing clouds.20 mph71%29.33 "HgN/A
7:20 PM48 °FPassing clouds.21 mph66%29.33 "HgN/A
6:50 PM46 °FPassing clouds.20 mph71%29.33 "HgN/A
6:20 PM46 °FPassing clouds.20 mph71%29.33 "HgN/A
5:50 PM48 °FPassing clouds.23 mph62%29.30 "HgN/A
5:20 PM48 °FPassing clouds.18 mph66%29.30 "HgN/A
4:50 PM48 °FPassing clouds.18 mph66%29.30 "HgN/A
4:20 PM48 °FPassing clouds.22 mph66%29.30 "HgN/A
3:50 PM48 °FPassing clouds.12 mph76%29.27 "HgN/A
3:20 PM45 °FPassing clouds.13 mph87%29.27 "HgN/A
3:01 PM50 °FRain showers. Passing clouds.14 mph67%29.27 "Hg2 mi
2:50 PM50 °FPassing clouds.14 mph67%29.27 "HgN/A
2:20 PM48 °FPassing clouds.16 mph76%29.27 "HgN/A
1:52 PM48 °FPassing clouds.16 mph76%29.27 "HgN/A
1:50 PM48 °FPassing clouds.15 mph82%29.27 "HgN/A
1:20 PM45 °FRain showers. Passing clouds.12 mph100%29.27 "HgN/A
Weather by CustomWeather, © 2016

See weather overviewHow to use our weather pages